GW5434 Weather Reports


Display with metric or nautical units.
time (UTC)temp
F
wind
direction
speed
MPH
gust
MPH
rain 1hr
in
rain 24hr
in
rain mn
in
humidity
%
barometer
mb
20260902204518 98 184 2.0 8.0 0.00 0.00 0.00 47 1015.7
20260902203019 99 228 2.0 7.0 0.00 0.00 0.00 46 1015.8
20260902201534 99 113 1.0 4.0 0.00 0.00 0.00 47 1015.8
20260902200035 98 185 2.0 7.0 0.00 0.00 0.00 49 1016.0
20260902194514 97 94 1.0 9.0 0.00 0.00 0.00 49 1016.2
20260902193017 97 101 1.0 11.0 0.00 0.00 0.00 49 1016.5
20260902191532 97 203 5.0 9.0 0.00 0.00 0.00 50 1016.8
20260902190004 96 144 4.0 8.0 0.00 0.00 0.00 50 1017.1
20260902184508 98 179 2.0 6.0 0.00 0.00 0.00 51 1017.4
20260902183018 97 225 2.0 5.0 0.00 0.00 0.00 53 1017.5
20260902181518 96 75 4.0 9.0 0.00 0.00 0.00 52 1017.7
20260902180024 96 189 2.0 8.0 0.00 0.00 0.00 52 1017.7
20260902174506 95 128 3.0 7.0 0.00 0.00 0.00 56 1017.9
20260902173009 95 27 1.0 8.0 0.00 0.00 0.00 54 1018.0
20260902171515 95 79 3.0 6.0 0.00 0.00 0.00 55 1018.3
20260902170021 95 188 3.0 8.0 0.00 0.00 0.00 58 1018.6
20260902164504 94 173 2.0 6.0 0.00 0.00 0.00 57 1018.8
20260902163004 94 333 1.0 6.0 0.00 0.00 0.00 58 1019.1
20260902161517 93 224 1.0 4.0 0.00 0.00 0.00 59 1019.1
20260902160017 91 338 0.0 4.0 0.00 0.00 0.00 62 1019.3
20260902154528 91 184 1.0 5.0 0.00 0.00 0.00 63 1019.2
20260902153004 90 249 2.0 4.0 0.00 0.00 0.00 67 1019.2
20260902151506 88 20 2.0 3.0 0.00 0.00 0.00 71 1019.3
20260902150014 89 204 0.0 4.0 0.00 0.00 0.00 71 1019.2
20260902144529 87 343 1.0 3.0 0.00 0.00 0.00 75 1019.2
20260902143025 85 293 1.0 3.0 0.00 0.00 0.00 79 1019.2
20260902141510 86 335 0.0 0.0 0.00 0.00 0.00 78 1019.2
20260902140016 83 316 0.0 0.0 0.00 0.00 0.00 81 1019.3
20260902134530 82 325 0.0 0.0 0.00 0.00 0.00 83 1019.2
20260902133023 81 132 0.0 0.0 0.00 0.00 0.00 84 1019.3
20260902131525 80 151 0.0 0.0 0.00 0.00 0.00 87 1019.4
20260902130007 76 117 0.0 0.0 0.00 0.00 0.00 94 1019.2
20260902124511 73 117 0.0 0.0 0.00 0.00 0.00 95 1019.2
20260902123017 72 117 0.0 0.0 0.00 0.00 0.00 94 1018.9
20260902121520 72 117 0.0 0.0 0.00 0.00 0.00 94 1018.7
20260902120027 71 117 0.0 0.0 0.00 0.00 0.00 94 1018.7
20260902114508 71 117 0.0 0.0 0.00 0.00 0.00 94 1018.6
20260902113029 71 117 0.0 0.0 0.00 0.00 0.00 94 1018.5
20260902111521 71 117 0.0 0.0 0.00 0.00 0.00 94 1018.2
20260902110022 71 117 0.0 0.0 0.00 0.00 0.00 94 1018.1
20260902104530 71 117 0.0 0.0 0.00 0.00 0.00 93 1018.1
20260902103020 72 117 0.0 0.0 0.00 0.00 0.00 93 1017.9
20260902101516 72 117 0.0 0.0 0.00 0.00 0.00 93 1017.8
20260902100022 72 117 0.0 0.0 0.00 0.00 0.00 93 1017.7
20260902094528 72 117 0.0 0.0 0.00 0.00 0.00 93 1017.5
20260902093030 72 117 0.0 0.0 0.00 0.00 0.00 93 1017.3
20260902091510 72 117 0.0 0.0 0.00 0.00 0.00 93 1017.2
20260902090020 73 117 0.0 0.0 0.00 0.00 0.00 93 1017.1
20260902084525 73 117 0.0 0.0 0.00 0.00 0.00 93 1017.2
20260902083028 73 117 0.0 0.0 0.00 0.00 0.00 93 1017.0
20260902081531 73 117 0.0 0.0 0.00 0.00 0.00 93 1017.0
20260902080013 73 117 0.0 0.0 0.00 0.00 0.00 93 1017.0
20260902074520 74 117 0.0 0.0 0.00 0.00 0.00 92 1017.0
20260902073025 74 117 0.0 0.0 0.00 0.00 0.00 93 1017.1
20260902071528 74 117 0.0 0.0 0.00 0.00 0.00 92 1017.2
20260902070031 74 117 0.0 0.0 0.00 0.00 0.00 92 1017.0
20260902064515 74 117 0.0 0.0 0.00 0.00 0.00 92 1017.0
20260902063018 74 117 0.0 0.0 0.00 0.00 0.00 91 1017.2
20260902061527 75 117 0.0 0.0 0.00 0.00 0.00 91 1017.3
20260902060029 75 117 0.0 0.0 0.00 0.00 0.00 91 1017.4
20260902054531 75 117 0.0 0.0 0.00 0.00 0.00 91 1017.7
20260902053018 75 117 0.0 0.0 0.00 0.00 0.00 90 1017.7
20260902051524 75 117 0.0 1.0 0.00 0.00 0.00 90 1017.7
20260902050026 75 117 0.0 0.0 0.00 0.00 0.00 89 1017.6
20260902044529 75 117 0.0 1.0 0.00 0.00 0.00 89 1017.7
20260902043035 76 117 0.0 0.0 0.00 0.00 0.00 90 1017.8
20260902041519 76 117 0.0 0.0 0.00 0.00 0.00 89 1017.8
20260902040027 76 118 0.0 1.0 0.00 0.00 0.00 89 1017.9
20260902034530 76 119 0.0 1.0 0.00 0.00 0.00 89 1017.9
20260902033036 77 119 0.0 0.0 0.00 0.00 0.00 88 1017.8
20260902031530 77 119 0.0 1.0 0.00 0.00 0.00 87 1017.9
20260902030023 77 122 0.0 0.0 0.00 0.00 0.00 87 1017.9
20260902024527 78 122 0.0 0.0 0.00 0.00 0.00 87 1017.9
20260902023040 78 122 0.0 0.0 0.00 0.00 0.00 86 1017.8
20260902021533 79 122 0.0 0.0 0.00 0.00 0.00 84 1017.7
20260902020033 79 122 0.0 0.0 0.00 0.00 0.00 84 1017.4
20260902014536 80 122 0.0 0.0 0.00 0.00 0.00 82 1017.1
20260902013029 81 122 0.0 0.0 0.00 0.00 0.00 81 1016.7
20260902011542 82 122 0.0 0.0 0.00 0.00 0.00 80 1016.5
20260902010014 84 131 0.0 2.0 0.00 0.00 0.00 77 1016.4
20260902004520 84 154 0.0 1.0 0.00 0.00 0.00 76 1016.2
20260902003029 85 97 1.0 3.0 0.00 0.00 0.00 74 1015.9
20260902001528 87 203 1.0 3.0 0.00 0.00 0.00 72 1015.7
20260902000040 89 219 1.0 4.0 0.00 0.00 0.00 69 1015.8
20260901234515 90 153 1.0 5.0 0.00 0.00 0.00 67 1015.8
20260901233023 92 186 2.0 4.0 0.00 0.00 0.00 66 1015.7
20260901231528 92 138 1.0 4.0 0.00 0.00 0.00 65 1015.8
20260901230032 93 125 1.0 5.0 0.00 0.00 0.00 63 1015.9
20260901224504 94 95 0.0 1.0 0.00 0.00 0.00 61 1016.1
20260901223009 95 127 0.0 3.0 0.00 0.00 0.00 58 1016.1
20260901221504 96 153 2.0 5.0 0.00 0.00 0.00 55 1015.9
20260901220004 95 165 1.0 4.0 0.00 0.00 0.00 58 1016.0
20260901214508 96 59 1.0 3.0 0.00 0.00 0.00 55 1016.1
20260901213003 96 111 1.0 4.0 0.00 0.00 0.00 54 1016.2
20260901211508 96 165 1.0 4.0 0.00 0.00 0.00 53 1016.3
20260901210005 97 112 0.0 3.0 0.00 0.00 0.00 56 1016.5